Dewpoint
64 66 67 67 68 69 69 70 69 69 68 68 69 69 70 71 69 71 72 71 71 71 72 73 73 73 71 71 70 72 73 74 72 74 75 75 75 74 76 77 75 72 73 73 71 72 74 73 73 74 74 72 72 70 69 69 71 71 70 68 67 70 72 74 72 71 71 71 68 67 68 69 68 71 69 68 68 69 70 70 70 66 64 63 64
67 69 66 67 66 66 67 68 69 68 67 66 68 68 69 70 71 72 70 71 73 71 73 71 72 72 70 71 72 71 74 75 72 72 74 73 73 68 72 77 76 73 74 75 73 71 73 74 73 72 73 72 71 70 69 67 67 66 67 68 73 71 75 75 73 73 71 72 69 69 67 68 68 70 69 68 67 70 66 67 65 63 62 63 63
68 69 67 67 67 65 66 67 67 66 65 64 64 65 67 68 70 70 70 70 72 72 71 72 72 72 71 72 72 72 74 74 73 72 73 74 73 72 69 72 73 72 71 72 72 73 71 72 71 71 68 70 71 70 68 68 68 69 68 70 73 72 73 75 74 72 71 71 72 70 69 69 69 68 69 67 71 67 68 65 62 60 61 61 61
70 71 72 70 68 66 67 66 65 65 64 64 63 64 65 67 69 68 68 68 69 70 71 73 74 74 73 73 73 73 74 74 72 72 73 74 74 73 73 73 73 73 73 73 72 71 71 73 71 71 71 71 72 71 70 69 69 70 70 71 72 71 73 73 73 74 74 71 72 70 70 69 68 68 66 67 65 66 65 66 64 64 62 61 62
72 71 72 72 71 68 66 65 65 65 64 63 62 63 64 65 68 70 68 68 67 70 71 72 72 74 71 72 74 73 73 74 73 72 72 73 74 73 73 73 73 73 73 74 73 73 73 72 71 72 71 70 69 69 70 71 71 71 70 71 71 71 71 72 73 73 72 71 70 71 71 70 68 68 68 66 67 68 69 70 65 66 66 62 59
73 72 73 73 72 71 69 67 66 65 64 64 62 62 62 63 66 68 69 70 67 69 69 68 69 72 73 72 73 73 74 74 74 74 72 72 72 72 73 73 73 73 73 71 72 71 70 71 70 70 70 70 69 70 72 72 71 70 70 71 71 71 72 71 72 72 71 71 71 69 71 65 66 69 68 67 64 64 67 69 70 69 70 65 63
74 74 74 73 73 71 69 69 68 66 66 65 63 63 63 62 64 67 68 68 66 65 66 68 68 70 73 72 71 73 73 73 75 74 73 73 72 72 71 72 73 72 73 71 71 71 71 70 71 70 70 70 68 68 69 69 69 70 72 71 71 70 70 70 70 69 69 68 67 67 65 64 66 66 67 69 68 67 67 66 68 67 69 69 69
75 75 74 74 73 71 69 68 67 69 69 70 68 65 64 63 64 65 66 66 66 65 64 66 68 70 71 71 71 73 73 73 74 76 73 73 72 72 73 72 71 71 70 71 69 68 69 68 66 67 68 70 69 69 70 68 69 69 69 70 71 71 70 69 69 69 68 67 65 64 65 69 69 67 65 68 68 69 65 64 66 67 68 73 69
75 75 75 75 74 74 73 72 71 71 72 73 72 69 67 66 65 66 67 67 65 66 65 65 66 67 70 70 69 68 70 70 70 72 73 73 73 71 71 71 70 71 70 70 70 69 67 65 64 63 68 71 70 72 75 76 70 71 71 72 72 71 70 70 70 70 70 69 68 68 66 67 68 68 61 61 64 64 65 62 66 65 65 64 68
72 73 73 74 75 76 75 76 75 74 73 73 75 74 71 70 67 67 67 67 68 69 69 68 66 67 67 69 69 66 65 67 72 74 74 72 71 69 70 71 71 71 72 70 68 68 67 66 64 67 72 71 73 75 76 76 75 70 70 71 72 73 72 72 72 71 70 69 66 65 63 61 59 63 60 60 63 64 61 66 66 64 67 67 70
72 72 72 73 74 75 75 75 75 75 75 76 76 76 74 72 71 71 69 68 70 72 70 69 67 67 66 66 68 66 64 64 70 67 69 71 72 71 70 70 71 72 69 72 71 69 67 67 67 67 75 75 74 78 77 76 76 75 74 74 76 75 71 69 70 69 69 67 66 65 61 63 62 64 63 58 58 61 62 68 66 68 69 69 68
73 72 72 73 73 73 73 73 73 73 74 73 74 75 76 76 74 74 71 69 71 68 68 69 70 67 67 68 68 67 65 70 65 66 67 68 73 70 66 67 66 67 69 69 68 68 67 65 64 63 64 68 70 76 77 76 74 75 75 75 75 75 75 76 73 71 70 68 67 66 66 66 66 66 62 61 67 71 72 72 73 72 71 70 70
72 72 72 72 73 73 73 73 73 72 72 72 72 72 72 74 75 73 72 72 71 72 72 69 68 67 66 66 64 64 62 65 64 65 66 66 68 72 64 64 62 62 65 68 69 70 70 68 67 65 62 66 66 68 74 77 75 74 74 75 76 74 70 70 71 75 71 72 70 70 68 69 69 69 68 71 74 73 73 72 74 73 73 72 72
71 71 72 73 74 72 73 72 72 73 73 73 73 73 73 72 74 74 73 75 72 71 71 71 69 71 69 67 70 65 65 66 64 65 65 65 66 70 68 66 65 64 65 64 64 68 70 71 70 69 68 70 71 67 68 70 72 78 78 77 76 76 74 70 69 70 72 72 71 70 71 71 71 73 75 76 74 74 73 73 74 72 73 73 75
71 71 71 72 72 73 72 71 71 72 73 72 72 72 72 74 74 74 76 74 72 72 72 72 69 70 69 67 67 65 62 65 64 64 64 64 65 70 69 66 66 65 65 66 68 66 69 68 70 70 72 71 71 71 70 71 73 73 73 72 72 73 75 75 74 72 72 71 71 72 73 72 74 76 76 75 74 75 74 75 75 74 74 74 74
68 69 69 69 70 70 71 71 71 71 71 71 71 71 71 75 75 76 75 74 73 75 74 70 68 69 70 69 67 66 66 60 62 63 62 63 66 70 69 70 69 68 67 66 67 70 69 70 71 70 71 73 73 76 76 77 73 72 72 71 71 69 65 69 65 67 72 70 71 70 67 69 67 75 75 70 73 75 75 74 74 74 73 72 71
66 67 68 69 69 69 70 70 69 69 70 70 69 69 72 74 75 75 74 73 73 72 71 71 72 71 70 70 70 71 70 63 59 59 60 61 66 70 71 69 69 69 68 69 69 68 68 70 72 69 70 76 70 65 70 75 75 74 74 72 70 67 63 60 63 63 64 63 62 63 63 63 63 62 62 62 69 71 73 72 72 72 72 71 70
64 65 66 66 68 68 68 68 69 69 69 69 70 70 71 72 72 74 74 73 72 73 73 73 73 73 72 71 72 71 70 63 57 57 58 60 65 72 72 71 70 70 68 69 68 69 70 71 72 73 75 74 64 64 66 74 75 74 73 72 72 71 70 66 64 67 64 65 66 66 63 63 63 63 62 62 62 66 72 71 72 72 71 70 68
62 63 64 65 66 67 67 67 67 67 68 68 69 69 70 70 71 73 74 73 73 74 74 72 73 73 73 72 71 70 69 65 57 57 57 59 68 74 74 73 73 72 71 71 71 72 73 75 77 75 75 69 59 61 64 73 72 72 72 72 71 70 71 72 72 72 73 73 75 76 78 73 77 78 77 69 67 69 73 73 73 73 72 72 72
62 62 62 63 63 64 65 66 67 67 67 67 67 68 69 70 70 71 71 71 71 71 72 73 72 72 72 71 69 69 69 66 63 55 56 57 60 71 74 74 72 72 72 72 71 72 72 71 72 61 59 58 57 57 59 61 71 72 72 71 71 70 72 71 73 72 73 72 72 73 73 75 77 77 76 76 76 78 77 75 76 75 74 72 72
63 63 63 62 61 62 62 63 64 65 66 67 67 68 69 70 70 69 69 70 70 70 71 70 70 70 70 71 70 69 68 68 65 55 54 56 58 64 74 73 73 72 71 72 70 70 71 72 73 64 59 57 56 55 55 58 63 72 73 73 72 69 67 70 71 72 71 73 72 72 73 74 74 74 74 75 73 74 77 75 74 74 75 73 72
61 61 63 63 63 63 62 62 63 64 65 66 67 67 67 68 69 69 69 69 69 70 70 70 70 70 69 70 70 69 68 68 67 60 56 55 55 58 68 68 67 71 70 69 71 71 70 71 72 64 57 56 55 53 52 54 59 70 75 63 59 61 69 69 69 69 70 71 72 73 72 73 72 73 73 74 74 74 75 73 74 75 74 74 74
59 59 61 61 62 63 63 63 61 61 62 64 65 66 68 68 69 69 69 69 69 69 69 70 70 70 70 71 70 69 68 68 66 67 59 56 54 56 56 64 60 71 69 69 71 72 70 71 71 66 56 54 52 53 53 54 59 67 61 59 59 61 67 67 68 69 69 70 71 72 73 72 72 72 73 73 72 74 74 73 73 75 76 75 75
58 58 57 58 60 61 62 62 62 62 63 64 64 64 65 66 67 67 67 67 67 66 67 67 67 66 67 68 67 68 67 67 65 66 64 59 57 56 57 57 58 65 68 68 70 68 69 69 68 56 52 50 51 53 55 58 64 58 55 57 59 63 67 68 66 67 69 70 71 73 72 73 73 72 72 73 72 74 74 73 72 72 73 74 76
56 55 56 55 55 55 57 60 61 62 62 61 62 62 63 64 63 65 65 64 65 65 65 66 66 66 66 67 67 66 66 66 65 66 65 63 59 59 59 58 61 59 68 66 68 67 64 57 54 54 55 54 53 53 57 59 56 55 56 57 66 68 69 69 69 69 70 69 69 69 68 68 69 69 72 74 73 72 72 71 71 71 72 74 75
57 57 55 55 54 53 52 52 54 58 60 60 60 60 60 61 62 62 62 63 64 64 63 62 63 65 65 65 65 64 65 65 65 65 65 65 63 59 60 61 68 68 68 66 66 62 59 57 55 54 56 59 67 70 69 66 63 61 60 62 68 68 69 68 67 67 67 65 65 65 65 67 68 71 72 73 72 72 73 72 72 70 72 74 73
57 56 56 54 53 52 51 51 50 49 52 53 57 59 59 58 61 61 60 59 60 60 60 61 60 59 62 62 63 64 64 64 63 63 63 62 61 63 71 72 70 67 69 66 67 68 69 65 65 63 62 62 62 63 65 67 69 69 67 67 69 69 65 68 67 67 67 67 66 66 67 67 69 69 69 69 69 70 70 70 69 69 70 70 71
55 55 52 52 52 53 51 51 53 50 49 51 51 53 54 57 57 57 56 56 56 55 56 58 58 58 57 58 61 62 62 61 60 60 60 60 60 61 60 61 62 61 62 62 63 64 64 66 65 67 67 67 68 67 67 68 68 65 62 62 63 64 66 66 68 68 67 66 65 65 66 66 66 65 65 65 66 67 68 68 68 68 68 69 68
55 55 55 55 53 55 54 53 51 51 53 56 52 53 50 51 57 56 53 55 54 54 56 56 58 58 58 60 61 61 61 59 57 49 56 48 54 57 61 61 60 62 59 51 60 64 63 61 65 63 62 60 61 60 58 58 60 58 58 61 58 58 62 63 63 63 61 59 58 61 62 64 64 63 64 64 65 64 66 67 68 67 68 68 67
54 52 53 51 52 53 53 52 52 53 50 51 56 54 55 52 54 53 53 56 51 47 50 56 57 59 60 61 60 59 57 56 48 44 43 43 43 43 43 41 41 50 50 49 55 61 62 62 57 57 59 57 56 56 54 55 56 55 55 56 56 57 58 57 59 56 55 57 59 59 61 60 59 60 61 61 63 62 64 63 66 67 66 64 62
53 50 51 49 48 53 51 52 54 55 54 53 54 55 53 55 46 48 55 55 48 42 42 43 46 49 57 57 56 51 50 47 43 42 42 42 41 41 40 40 40 40 42 55 63 63 62 61 59 59 58 57 56 55 56 55 55 55 56 56 56 56 57 57 56 54 55 56 58 57 56 56 57 59 59 59 59 60 61 63 62 63 61 60 60
54 51 50 51 53 53 52 53 54 53 54 55 56 54 55 57 56 50 45 47 45 43 42 42 43 45 46 51 58 60 53 48 43 42 42 42 42 41 40 40 41 41 44 43 61 60 59 58 58 58 57 55 55 55 53 53 54 56 56 56 55 55 57 58 58 58 57 55 54 54 55 56 56 56 55 55 57 58 58 58 58 58 59 59 59
51 50 51 53 53 54 53 54 54 53 53 55 55 55 53 53 55 56 56 45 44 42 41 43 45 45 44 43 43 45 46 44 42 42 42 42 41 41 40 42 43 40 43 56 63 58 58 58 56 57 54 54 55 53 53 53 53 54 54 54 54 55 57 60 61 60 56 54 54 54 54 54 53 53 53 54 54 55 55 55 55 56 56 56 57
50 50 49 51 54 54 52 53 53 53 54 54 54 53 54 53 52 54 56 55 55 53 48 44 44 45 44 45 45 45 45 44 43 44 42 42 42 42 41 52 46 43 50 62 64 60 57 56 55 56 54 55 53 52 53 54 53 55 53 53 53 56 58 60 58 56 55 55 54 54 55 53 53 54 54 53 54 54 53 52 53 54 53 54 53
51 51 51 51 53 52 52 53 52 53 54 54 53 52 53 53 52 52 53 52 52 53 57 56 48 41 55 46 42 41 44 44 44 43 44 44 43 42 41 61 62 59 58 61 62 60 55 54 53 53 54 53 53 53 53 53 51 51 51 54 53 54 55 55 54 56 56 56 55 55 55 55 56 55 55 54 53 53 53 53 52 52 53 53 53
49 49 50 50 50 50 51 52 52 53 52 51 52 51 51 51 51 52 52 53 52 51 51 54 58 52 48 48 42 42 43 43 43 43 43 44 42 40 58 56 55 55 56 61 61 58 57 55 54 53 53 52 53 53 53 52 51 51 52 53 52 53 55 53 54 54 56 56 55 55 54 55 54 54 54 53 54 53 52 52 52 52 53 52 52
48 49 49 49 49 49 51 51 53 50 47 49 50 51 50 51 51 51 52 52 52 50 51 53 53 58 54 57 49 42 43 43 43 43 42 43 41 52 57 53 52 54 53 53 53 55 54 55 55 55 54 53 53 53 53 52 53 54 54 55 56 55 53 53 52 55 56 53 54 55 55 53 53 54 52 52 51 52 51 52 52 52 52 51 52
50 48 48 47 47 50 51 51 49 47 51 51 52 52 50 51 52 50 49 49 47 47 49 52 49 50 50 56 56 51 50 47 46 44 43 43 50 56 57 54 54 54 50 51 53 53 54 54 56 55 56 54 54 55 54 55 53 53 53 55 55 55 56 53 55 59 58 52 51 51 51 52 51 51 51 51 51 51 51 52 51 50 50 51 50
51 49 47 45 45 47 47 47 48 48 48 48 49 49 49 48 48 48 48 48 50 49 50 50 50 49 50 52 52 51 50 49 50 51 51 50 51 51 52 52 52 52 52 52 55 56 55 54 56 56 55 55 55 55 55 54 54 53 55 53 53 52 52 52 53 54 51 51 50 51 51 51 51 51 51 51 50 51 50 49 49 49 49 50 50
46 50 46 44 46 46 45 47 46 47 48 49 47 48 48 48 48 47 48 48 49 49 48 49 48 51 51 52 49 48 47 47 49 49 50 51 51 51 52 53 55 55 55 56 56 56 56 56 55 55 57 56 55 54 54 54 53 53 53 53 52 52 52 52 51 51 50 50 51 51 51 51 51 51 51 50 49 49 49 49 49 50 50 50 51
47 48 46 45 43 43 46 48 47 47 48 47 47 47 47 47 47 47 47 47 47 47 48 47 48 51 48 48 44 45 47 47 48 49 48 48 50 53 53 53 53 54 54 53 54 54 54 53 53 53 53 53 53 53 52 53 53 52 52 52 51 51 50 51 51 50 50 50 49 49 50 49 50 49 49 49 49 48 48 47 47 47 48 49 49
47 47 46 46 46 45 44 46 46 48 47 47 48 47 47 46 46 47 46 47 46 45 45 45 46 49 46 44 43 42 45 47 47 47 48 47 50 51 51 52 52 53 52 52 52 52 52 52 52 51 51 51 51 51 50 50 49 49 49 50 50 50 49 49 50 50 49 48 49 48 48 49 49 48 48 49 47 46 47 46 46 47 47 48 49
48 46 46 47 45 44 44 44 45 45 45 45 46 47 47 46 46 45 45 46 44 44 44 44 46 46 46 45 46 45 46 46 46 46 47 48 48 49 50 50 50 50 51 51 50 51 51 51 50 49 49 49 50 50 49 49 49 48 47 48 47 47 47 46 46 47 47 48 47 48 48 47 48 47 47 47 46 46 46 46 46 46 46 47 48
46 44 45 45 44 45 45 44 44 44 45 45 45 45 44 44 43 44 44 44 43 43 43 42 43 44 45 43 44 44 44 45 46 45 47 47 47 48 48 49 49 49 49 49 49 49 49 49 49 48 49 49 49 49 48 48 48 47 47 47 46 46 46 46 46 46 46 46 46 47 46 47 46 45 46 45 46 46 45 45 44 44 43 43 44
44 43 42 43 44 44 44 45 44 44 43 43 43 42 43 42 42 42 41 41 43 42 43 43 43 43 42 43 45 45 44 44 45 45 45 45 46 47 47 48 48 48 47 47 48 49 48 47 47 47 47 47 47 47 47 47 47 47 46 46 46 45 46 45 45 45 45 46 44 44 43 43 43 43 43 43 44 43 42 43 43 45 44 45 45
42 43 42 41 42 43 43 43 43 43 42 41 41 41 41 40 41 41 41 42 43 42 42 41 41 40 41 41 42 43 43 44 45 44 45 45 46 46 47 47 47 47 46 46 46 47 46 46 46 45 46 46 46 46 46 46 46 46 46 45 44 42 42 42 43 44 43 44 42 42 41 41 41 41 42 41 42 42 43 43 45 44 44 45 45
42 41 41 41 41 42 43 43 42 42 41 40 40 40 40 39 39 40 42 41 40 40 39 39 39 39 39 41 41 42 41 41 42 42 44 45 46 45 45 46 46 46 46 46 46 45 45 46 46 45 45 45 45 46 45 44 44 44 44 42 41 39 38 40 41 42 41 41 40 40 39 39 40 40 42 42 42 42 43 42 43 44 44 44 45
41 41 40 41 41 40 40 41 41 40 40 40 39 39 39 39 39 40 39 38 38 38 38 40 39 39 40 40 40 40 41 41 41 41 43 43 43 43 44 44 44 44 45 44 44 44 45 45 45 45 44 45 45 44 44 44 44 43 42 39 39 38 39 39 40 40 38 38 39 39 40 39 39 40 40 41 41 41 41 41 42 42 43 43 43
39 39 39 39 39 39 39 38 39 38 38 39 37 37 37 37 38 37 37 36 37 38 38 38 38 39 39 40 39 39 39 39 39 40 40 40 42 42 42 43 44 44 43 43 43 43 44 44 44 44 44 44 44 43 43 43 41 40 39 38 38 37 36 38 37 37 37 36 36 36 37 39 40 40 40 41 41 41 41 42 42 42 42 43 43
38 39 38 38 39 38 38 38 38 38 37 37 36 36 36 37 37 36 37 37 36 37 37 37 38 38 37 37 38 38 38 37 38 38 39 39 40 41 40 41 42 42 42 42 42 43 42 43 43 43 43 43 42 43 41 41 39 38 37 38 36 35 35 36 37 38 36 36 36 36 36 39 41 40 41 41 41 41 41 41 42 42 42 42 43
39 38 38 37 38 37 37 37 36 37 36 36 36 36 36 36 35 35 35 36 37 36 36 37 36 36 37 36 37 38 37 38 38 38 38 39 39 39 39 39 39 40 40 41 41 41 42 42 41 41 41 41 41 40 40 40 38 37 38 36 34 34 34 35 36 34 35 35 36 36 36 38 40 41 41 40 41 41 42 41 42 42 42 42 43